Voltar ao catálogo

USA 429

AtivoMilitarVLEO
NORAD 61652·PAYLOAD·🇺🇸 United States

Lançado Oct 24, 2024 de Vandenberg Space Force Base

Loading…

Próximas Passagens (próximas 24 horas)

TLE

ObsoletoSource: Mike McCants

Época: Aug 10, 2026, 19:50 UTC

1 61652U 24192J   26222.82693411 0.00000000  00000-0  00000-0 0    09
2 61652  70.0195 114.9334 0002000 247.1226 112.8774 14.96713300    09

Acompanhe USA 429 em tempo real com AllMySat

Download on the App Store